When you browse on this site, cookies collect data to enhance your experience and personalize the content and advertising you see.
Visit our Privacy Policy to learn more. By continuing to use the site, you agree to this use of cookies and data.
  • en Suisse
  • Liste des pays
  • À 7 jours
  • Température de l'eau
  • Carte satellitaire
  • Carte météo
  • Widgets météo
  • user-avatar
    Se connecter

    Météo par heure à Kloniczki

    Ce jour, 21 Février, Jeudi

    Heure Température Précipitation Vent Pression Humidité
    00:00 +3°C° 0 mm 3 m/s 751 mmHg 87%
    01:00 +3°C° 0 mm 3 m/s 752 mmHg 89%
    02:00 +3°C° 0 mm 3 m/s 752 mmHg 89%
    03:00 +3°C° 0 mm 3 m/s 752 mmHg 89%
    04:00 +3°C° 0 mm 3 m/s 752 mmHg 89%
    05:00 +3°C° 0 mm 4 m/s 752 mmHg 89%
    06:00 +3°C° 0 mm 4 m/s 752 mmHg 89%
    07:00 +3°C° 0 mm 4 m/s 751 mmHg 89%
    08:00 +3°C° 0 mm 4 m/s 751 mmHg 85%
    09:00 +3°C° 0 mm 5 m/s 751 mmHg 81%
    10:00 +5°C° 0 mm 5 m/s 751 mmHg 77%
    11:00 +5°C° 0.2 mm 5 m/s 751 mmHg 76%
    12:00 +5°C° 0.2 mm 5 m/s 751 mmHg 76%
    13:00 +5°C° 0.2 mm 6 m/s 751 mmHg 76%
    14:00 +4°C° 0.5 mm 6 m/s 750 mmHg 77%
    15:00 +4°C° 0.5 mm 6 m/s 750 mmHg 78%
    16:00 +4°C° 0.5 mm 6 m/s 750 mmHg 79%
    17:00 +4°C° 0.5 mm 6 m/s 750 mmHg 80%
    18:00 +5°C° 0.5 mm 5 m/s 750 mmHg 81%
    19:00 +5°C° 0.5 mm 5 m/s 750 mmHg 82%
    20:00 +4°C° 0.2 mm 6 m/s 749 mmHg 84%
    21:00 +4°C° 0.2 mm 6 m/s 749 mmHg 85%
    22:00 +4°C° 0.2 mm 6 m/s 749 mmHg 87%
    23:00 +4°C° 1.4 mm 6 m/s 749 mmHg 89%

    Demain, 22 Février, Vendredi

    Heure Température Précipitation Vent Pression Humidité
    00:00 +4°C° 1.4 mm 6 m/s 749 mmHg 91%
    01:00 +4°C° 1.4 mm 6 m/s 748 mmHg 93%
    02:00 +4°C° 0.9 mm 6 m/s 749 mmHg 93%
    03:00 +4°C° 0.9 mm 6 m/s 749 mmHg 93%
    04:00 +4°C° 0.9 mm 6 m/s 749 mmHg 94%
    05:00 +2°C° 0.1 mm 6 m/s 750 mmHg 89%
    06:00 0°C° 0.1 mm 7 m/s 752 mmHg 85%
    07:00 -2°C° 0.1 mm 8 m/s 753 mmHg 80%
    08:00 -2°C° 0 mm 7 m/s 754 mmHg 75%
    09:00 -2°C° 0 mm 7 m/s 756 mmHg 69%
    10:00 -2°C° 0 mm 6 m/s 757 mmHg 64%
    11:00 -2°C° 0 mm 6 m/s 758 mmHg 59%
    12:00 -2°C° 0 mm 6 m/s 758 mmHg 54%
    13:00 0°C° 0 mm 5 m/s 759 mmHg 49%
    14:00 -1°C° 0 mm 5 m/s 760 mmHg 48%
    15:00 -1°C° 0 mm 5 m/s 760 mmHg 46%
    16:00 -1°C° 0 mm 5 m/s 760 mmHg 45%
    17:00 -2°C° 0 mm 5 m/s 761 mmHg 47%
    18:00 -4°C° 0 mm 5 m/s 762 mmHg 48%
    19:00 -3°C° 0 mm 4 m/s 762 mmHg 50%
    20:00 -4°C° 0 mm 4 m/s 763 mmHg 49%
    21:00 -4°C° 0 mm 4 m/s 763 mmHg 48%
    22:00 -4°C° 0 mm 4 m/s 764 mmHg 47%
    23:00 -4°C° 0 mm 3 m/s 764 mmHg 45%

    Après-demain, 23 Février, Samedi

    Heure Température Précipitation Vent Pression Humidité
    00:00 -4°C° 0 mm 3 m/s 764 mmHg 44%
    01:00 -4°C° 0 mm 3 m/s 764 mmHg 42%
    02:00 -5°C° 0 mm 3 m/s 764 mmHg 41%
    03:00 -4°C° 0 mm 2 m/s 764 mmHg 41%
    04:00 -4°C° 0 mm 2 m/s 764 mmHg 40%
    05:00 -4°C° 0 mm 2 m/s 764 mmHg 39%
    06:00 -4°C° 0 mm 2 m/s 765 mmHg 39%
    07:00 -4°C° 0 mm 2 m/s 765 mmHg 39%
    08:00 -4°C° 0 mm 2 m/s 765 mmHg 35%
    09:00 -3°C° 0 mm 2 m/s 765 mmHg 32%
    10:00 -3°C° 0 mm 2 m/s 766 mmHg 29%
    11:00 -2°C° 0 mm 2 m/s 765 mmHg 27%
    12:00 +1°C° 0 mm 1 m/s 765 mmHg 25%
    13:00 +1°C° 0 mm 1 m/s 765 mmHg 23%
    14:00 +1°C° 0 mm 1 m/s 765 mmHg 24%
    15:00 +1°C° 0 mm 1 m/s 764 mmHg 24%
    16:00 +1°C° 0 mm 1 m/s 764 mmHg 25%
    17:00 +1°C° 0 mm 1 m/s 764 mmHg 28%
    18:00 0°C° 0 mm 1 m/s 764 mmHg 31%
    19:00 -2°C° 0 mm 0 m/s 764 mmHg 33%
    20:00 -1°C° 0 mm 1 m/s 764 mmHg 33%
    21:00 -1°C° 0 mm 1 m/s 764 mmHg 33%
    22:00 -1°C° 0 mm 1 m/s 764 mmHg 33%
    23:00 -1°C° 0 mm 1 m/s 764 mmHg 34%

    24 Février, Dimanche

    Heure Température Précipitation Vent Pression Humidité
    00:00 -1°C° 0 mm 1 m/s 764 mmHg 34%
    01:00 -1°C° 0 mm 1 m/s 763 mmHg 34%
    02:00 -3°C° 0 mm 2 m/s 763 mmHg 34%
    03:00 -3°C° 0 mm 2 m/s 763 mmHg 35%
    04:00 -3°C° 0 mm 2 m/s 762 mmHg 35%
    05:00 -3°C° 0 mm 2 m/s 762 mmHg 35%
    06:00 -3°C° 0 mm 2 m/s 762 mmHg 35%
    07:00 -2°C° 0 mm 2 m/s 762 mmHg 34%
    08:00 -1°C° 0 mm 2 m/s 762 mmHg 32%
    09:00 +1°C° 0 mm 2 m/s 762 mmHg 30%
    10:00 +1°C° 0 mm 3 m/s 761 mmHg 28%
    11:00 +2°C° 0 mm 3 m/s 761 mmHg 29%
    12:00 +3°C° 0 mm 3 m/s 761 mmHg 30%
    13:00 +4°C° 0 mm 3 m/s 760 mmHg 30%
    14:00 +3°C° 0 mm 3 m/s 760 mmHg 36%
    15:00 +3°C° 0 mm 3 m/s 759 mmHg 42%
    16:00 +3°C° 0 mm 3 m/s 759 mmHg 49%
    17:00 +2°C° 0 mm 3 m/s 759 mmHg 53%
    18:00 +2°C° 0 mm 3 m/s 759 mmHg 57%
    19:00 +1°C° 0 mm 3 m/s 759 mmHg 61%
    20:00 +1°C° 0 mm 3 m/s 758 mmHg 63%
    21:00 +1°C° 0 mm 3 m/s 758 mmHg 66%
    22:00 +1°C° 0 mm 3 m/s 758 mmHg 68%
    23:00 0°C° 0.3 mm 4 m/s 758 mmHg 71%

    25 Février, Lundi

    Heure Température Précipitation Vent Pression Humidité
    00:00 0°C° 0.3 mm 4 m/s 758 mmHg 75%
    01:00 0°C° 0.3 mm 4 m/s 758 mmHg 79%
    02:00 0°C° 0 mm 4 m/s 758 mmHg 83%
    03:00 0°C° 0 mm 4 m/s 758 mmHg 88%
    04:00 0°C° 0 mm 4 m/s 758 mmHg 92%
    05:00 0°C° 0 mm 4 m/s 758 mmHg 93%
    06:00 +1°C° 0 mm 5 m/s 759 mmHg 93%
    07:00 +1°C° 0 mm 5 m/s 759 mmHg 94%
    08:00 +1°C° 0 mm 5 m/s 760 mmHg 89%
    09:00 +2°C° 0 mm 5 m/s 760 mmHg 84%
    10:00 +2°C° 0 mm 5 m/s 761 mmHg 79%
    11:00 +3°C° 0 mm 5 m/s 761 mmHg 72%
    12:00 +5°C° 0 mm 5 m/s 761 mmHg 66%
    13:00 +6°C° 0 mm 5 m/s 761 mmHg 59%
    14:00 +6°C° 0 mm 5 m/s 761 mmHg 58%
    15:00 +6°C° 0 mm 4 m/s 760 mmHg 58%
    16:00 +6°C° 0 mm 4 m/s 760 mmHg 57%
    17:00 +5°C° 0 mm 4 m/s 761 mmHg 62%
    18:00 +4°C° 0 mm 3 m/s 761 mmHg 66%
    19:00 +3°C° 0 mm 3 m/s 761 mmHg 71%
    20:00 +3°C° 0 mm 3 m/s 761 mmHg 73%
    21:00 +3°C° 0 mm 2 m/s 761 mmHg 74%
    22:00 +3°C° 0 mm 2 m/s 761 mmHg 75%
    23:00 +2°C° 0 mm 2 m/s 760 mmHg 76%

    26 Février, Mardi

    Heure Température Précipitation Vent Pression Humidité
    00:00 +1°C° 0 mm 3 m/s 760 mmHg 77%
    01:00 +1°C° 0 mm 3 m/s 759 mmHg 78%
    02:00 +1°C° 0 mm 3 m/s 758 mmHg 77%
    03:00 -1°C° 0 mm 4 m/s 758 mmHg 77%
    04:00 -1°C° 0 mm 4 m/s 757 mmHg 77%
    05:00 -1°C° 0 mm 4 m/s 757 mmHg 80%
    06:00 0°C° 0 mm 5 m/s 756 mmHg 83%
    07:00 0°C° 0 mm 5 m/s 756 mmHg 86%
    08:00 +1°C° 0 mm 5 m/s 756 mmHg 83%
    09:00 +2°C° 0 mm 5 m/s 755 mmHg 80%
    10:00 +3°C° 0 mm 6 m/s 755 mmHg 77%
    11:00 +4°C° 0 mm 6 m/s 754 mmHg 72%
    12:00 +5°C° 0 mm 6 m/s 754 mmHg 68%
    13:00 +7°C° 0 mm 6 m/s 753 mmHg 63%
    14:00 +7°C° 0 mm 6 m/s 752 mmHg 63%
    15:00 +8°C° 0 mm 6 m/s 752 mmHg 63%
    16:00 +8°C° 0 mm 6 m/s 751 mmHg 63%
    17:00 +7°C° 0 mm 6 m/s 752 mmHg 67%
    18:00 +6°C° 0 mm 5 m/s 752 mmHg 71%
    19:00 +6°C° 0 mm 5 m/s 752 mmHg 75%
    20:00 +5°C° 0 mm 5 m/s 752 mmHg 77%
    21:00 +5°C° 0 mm 5 m/s 752 mmHg 79%
    22:00 +5°C° 0 mm 5 m/s 752 mmHg 81%
    23:00 +3°C° 0 mm 5 m/s 752 mmHg 84%
    Voir plus